Regional Weather Roundup
Issued by NWS Green Bay, WI

Home | Current Version | Previous Version | Text Only | Print | Product List | Glossary On
Versions: 1 2 3 4 5 6 7 8 9 10 11 12 13 14 15 16 17 18 19 20 21 22 23 24 25 26 27 28 29 30 31 32 33 34 35 36 37 38 39 40 41 42 43 44 45 46 47 48 49 50
000
ASUS43 KGRB 291310
RWRGRB

NORTH-CENTRAL AND NORTHEAST WISCONSIN REGIONAL WEATHER ROUNDUP
NATIONAL WEATHER SERVICE GREEN BAY WI
800 AM CDT FRI AUG 29 2014

WIZ005-009-010>012-018-019-291400-
NORTH CENTRAL WISCONSIN

CITY           SKY/WX    TMP DP  RH WIND       PRES   REMARKS
IRONWOOD       NOT AVBL
MANITOWISH WTR HVY RAIN  58  58 100 SE7       29.91F
ARBOR VITAE    LGT RAIN  59  58  94 SE7       29.93F
EAGLE RIVER    RAIN      58  58 100 CALM      29.94F
LAND O LAKES   LGT RAIN  58  57  97 SE6       29.95F
RHINELANDER    LGT RAIN  57  57 100 SE8       29.95F
PHILLIPS       RAIN      58  57  99 E7        29.89F
ANTIGO         LGT RAIN  57  57 100 SE8       29.95F
TOMAHAWK       CLOUDY    58  56  96 SE5       29.93F FOG
MERRILL        CLOUDY    59  59 100 SE7       29.93F FOG
$$

WIZ013-073-291400-
NORTHEAST WISCONSIN

CITY           SKY/WX    TMP DP  RH WIND       PRES   REMARKS
IRON MOUNTAIN  CLOUDY    59  57  93 SE7       29.96F FOG
MARINETTE      CLOUDY    61  57  88 SE12      29.96F
OCONTO         CLOUDY    61  61 100 SE3       29.96F
$$

WIZ017-030-035>037-045-291400-
CENTRAL WISCONSIN

CITY           SKY/WX    TMP DP  RH WIND       PRES   REMARKS
MEDFORD        FOG       59  58  99 SE7       29.91R VSB 1/2
WAUSAU         CLOUDY    60  59  96 SE7       29.92F FOG
MOSINEE        NOT AVBL
MARSHFIELD     LGT RAIN  62  61  96 SE8       29.90F VSB 3/4
WISC RAPIDS    CLOUDY    63  61  93 SE7       29.94F
STEVENS POINT  CLOUDY    60  59  98 SE6       29.94F FOG
WAUPACA        CLOUDY    64  63  95 NE3       29.95S FOG
SHAWANO        CLOUDY    63  61  93 E5        29.96S
CLINTONVILLE   CLOUDY    61  61 100 CALM      29.95S FOG
$$

WIZ038-039-048-051-291400-
FOX VALLEY

CITY           SKY/WX    TMP DP  RH WIND       PRES   REMARKS
NWS GREEN BAY  CLOUDY    64  63  96 E3        29.96F
APPLETON       CLOUDY    64  64 100 VRB3      29.95F
OSHKOSH        CLOUDY    68  65  90 S3        29.95S
FOND DU LAC    CLOUDY    69  64  84 S13       29.95S
$$

WIZ022-050-052-291400-
EAST CENTRAL WISCONSIN

CITY           SKY/WX    TMP DP  RH WIND       PRES   REMARKS
STURGEON BAY   CLOUDY    61  57  88 SE7       29.98F
MANITOWOC      CLOUDY    68  66  93 S10       29.97R
SHEBOYGAN      CLOUDY    69  66  90 S12       29.96S
$$

LMZ563-521-522-541>543-291400-
LAKESHORE

STATION/POSITION TIME  TEMP    WIND        PRES    VSBY  WAVE
                       AIR SEA DIR/SP/G                  HT/PER
                 (UTC) (F)     (DEG/KT/KT) (MB)    (MI)  (FT/S)
SHEBOYGAN LKSHOR 1300   68 69  180/ 15/ 16 1014.7R
KEWAUNEE LKSHORE 1300   66     220/  2/  5 1014.3R
NORTHPORT PIER   1300   62     140/ 16/ 19 1015.6S
N MID LAKE BUOY  1300   61 65  140/ 17/ 19 1015.7F         2/ 3
S GREEN BAY BUOY 1300   64     VRB  8/ 12  1015.5F
SISTER BAY LKSHO 1200   60     140/ 10/ 14   N/A
STURGEON BAY CG  1200   61 64  160/ 13     1015.8      6
CHAMBERS ISLAND  1300   61     120/  5/ 10 1015.6S
MENOMINEE LKSHOR 1300   63     130/ 12/ 14 1015.6F
$$



USA.gov is the U.S. government's official web portal to all federal, state and local government web resources and services.